Location: Memphis International Airport Police
(35.0443°N, 89.9815°W)
Time: 01:23:11
(UTC+00:00)

Cosmos 2333 Rocket - Pass Details

Date: 26 September 2023
Orbit: 837 x 864 km, 70.8° (Epoch: 01 December)

Event Time Altitude Azimuth Distance (km) Brightness Sun altitude
Rises 00:24:08 0° 200° (SSW) 3,372 5.5 -7.3°
Reaches altitude 10° 00:26:34 10° 200° (SSW) 2,441 4.8 -7.8°
Maximum altitude 00:32:10 89° 285° (WNW) 843 2.2 -8.9°
Drops below altitude 10° 00:37:50 10° 21° (NNE) 2,462 4.5 -10.1°
Sets 00:40:17 0° 22° (NNE) 3,403 5.2 -10.6°
